sat.trackr.live / text

‹ back to catalog

STARLINK-5382

NORAD 54820 · 2022-177A

PAYLOAD ACTIVE UNKNOWN

§ Identity

Operator
Country
US
Launch date
2022-12-28
Launch site
AFETR
Launch vehicle
Mass (kg)
RCS (m²)

Purposes: comms

External: N2YO · Heavens-Above · Gunter

§ Orbital elements

Epoch: 2026-09-19T22:30:20.235744Z

Period
94.27 min
Inclination
43.0064°
Eccentricity
0.0001557
Mean motion
15.27575093 rev/d
Perigee alt
482.0 km
Apogee alt
484.1 km
Semi-major
6,861.2 km
B*
3.4810e-5
RAAN
118.8388°
Arg perigee
247.2736°
Mean anomaly
112.7951°
Rev number
20,663

§ Raw data

STARLINK-53821 54820U 22177A   26262.93773421  .00000696  00000+0  34810-4 0  99922 54820  43.0064 118.8388 0001557 247.2736 112.7951 15.27575093206631

JSON: /api/v1/satellites/54820 · /tle

For live sub-satellite position, see the globe view (requires WebGL).

§ Visibility from observer

Set your observer location to see the next 7 days of passes ≥ 10°. The values pass through the URL so the page stays shareable.

No JS? Fill the form by hand. The geolocation button needs JavaScript.